User: anonymous   Login
Location: Unspecified
(50.7693°N, 0.0000°E)
Time: 07:29:00
(UTC+00:00)
Language:

A-11 Canister half - Orbit

View from above orbital plane
View from above orbital plane
View from above satellite
View from above satellite

Ground track
Ground track

The orbit data is extracted from the following two-line orbital elements,

1    53U 60009E   19291.41516290 -.00000107 +00000-0 -20933-3 0  9993
2    53 047.2754 288.4705 0096697 082.7232 278.4536 12.17229908638962
Epoch (UTC): 18 October 2019 09:57:50
Eccentricity: 0.0096697
inclination: 47.2754°
perigee height: 1527 km
apogee height: 1682 km
right ascension of ascending node: 288.4705°
argument of perigee: 82.7232°
revolutions per day: 12.17229908
mean anomaly at epoch: 278.4536°
orbit number at epoch: 63896

The dashed part of the orbit path shows where the satellite is in the earth's shadow,  

DLR